When you browse on this site, cookies collect data to enhance your experience and personalize the content and advertising you see.
Visit our Privacy Policy to learn more. By continuing to use the site, you agree to this use of cookies and data.
  • In Austria
  • List of Countries
  • For 7 days
  • Water Temperature
  • Satellite Maps
  • Weather Map
  • News
  • Weather Widgets
  • user-avatar
    Login

    Hourly Weather Riomaggiore

    Today, 19 February, Tuesday

    Time Temperature Precipitation Wind Pressure Humidity
    00:00 +6°C° 0 mm 2 mps 757 mmHg 79%
    01:00 +7°C° 0 mm 1 mps 757 mmHg 79%
    02:00 +6°C° 0 mm 2 mps 757 mmHg 80%
    03:00 +6°C° 0 mm 2 mps 757 mmHg 81%
    04:00 +5°C° 0 mm 2 mps 756 mmHg 82%
    05:00 +5°C° 0 mm 2 mps 756 mmHg 84%
    06:00 +5°C° 0 mm 2 mps 756 mmHg 85%
    07:00 +6°C° 0 mm 1 mps 757 mmHg 87%
    08:00 +7°C° 0 mm 2 mps 757 mmHg 83%
    09:00 +8°C° 0 mm 2 mps 757 mmHg 78%
    10:00 +10°C° 0 mm 2 mps 757 mmHg 74%
    11:00 +12°C° 0 mm 2 mps 756 mmHg 71%
    12:00 +12°C° 0 mm 2 mps 756 mmHg 69%
    13:00 +13°C° 0 mm 2 mps 756 mmHg 66%
    14:00 +13°C° 0 mm 2 mps 756 mmHg 68%
    15:00 +12°C° 0 mm 2 mps 756 mmHg 70%
    16:00 +12°C° 0 mm 2 mps 756 mmHg 72%
    17:00 +10°C° 0 mm 2 mps 756 mmHg 78%
    18:00 +9°C° 0 mm 1 mps 756 mmHg 85%
    19:00 +8°C° 0 mm 1 mps 756 mmHg 91%
    20:00 +8°C° 0 mm 1 mps 756 mmHg 90%
    21:00 +7°C° 0 mm 1 mps 757 mmHg 89%
    22:00 +6°C° 0 mm 2 mps 757 mmHg 88%
    23:00 +6°C° 0 mm 2 mps 757 mmHg 87%

    Tomorrow, 20 February, Wednesday

    Time Temperature Precipitation Wind Pressure Humidity
    00:00 +6°C° 0 mm 2 mps 757 mmHg 85%
    01:00 +6°C° 0 mm 2 mps 757 mmHg 83%
    02:00 +6°C° 0 mm 2 mps 757 mmHg 82%
    03:00 +6°C° 0 mm 2 mps 757 mmHg 80%
    04:00 +6°C° 0 mm 2 mps 757 mmHg 79%
    05:00 +6°C° 0 mm 2 mps 757 mmHg 79%
    06:00 +6°C° 0 mm 2 mps 757 mmHg 78%
    07:00 +6°C° 0 mm 2 mps 757 mmHg 78%
    08:00 +7°C° 0 mm 2 mps 757 mmHg 72%
    09:00 +9°C° 0 mm 2 mps 758 mmHg 67%
    10:00 +12°C° 0 mm 1 mps 758 mmHg 61%
    11:00 +13°C° 0 mm 2 mps 758 mmHg 60%
    12:00 +14°C° 0 mm 2 mps 758 mmHg 59%
    13:00 +14°C° 0 mm 2 mps 758 mmHg 58%
    14:00 +14°C° 0 mm 2 mps 758 mmHg 61%
    15:00 +14°C° 0 mm 2 mps 758 mmHg 65%
    16:00 +13°C° 0 mm 2 mps 758 mmHg 68%
    17:00 +12°C° 0 mm 1 mps 758 mmHg 76%
    18:00 +11°C° 0 mm 1 mps 758 mmHg 84%
    19:00 +8°C° 0 mm 0 mps 759 mmHg 92%
    20:00 +8°C° 0 mm 0 mps 759 mmHg 92%
    21:00 +9°C° 0 mm 1 mps 759 mmHg 91%
    22:00 +9°C° 0 mm 1 mps 759 mmHg 91%
    23:00 +9°C° 0 mm 1 mps 760 mmHg 90%

    Day after tomorrow, 21 February, Thursday

    Time Temperature Precipitation Wind Pressure Humidity
    00:00 +9°C° 0 mm 1 mps 760 mmHg 89%
    01:00 +9°C° 0 mm 1 mps 760 mmHg 89%
    02:00 +8°C° 0 mm 1 mps 760 mmHg 88%
    03:00 +8°C° 0 mm 1 mps 760 mmHg 87%
    04:00 +8°C° 0 mm 1 mps 760 mmHg 86%
    05:00 +8°C° 0 mm 1 mps 760 mmHg 85%
    06:00 +8°C° 0 mm 1 mps 760 mmHg 84%
    07:00 +8°C° 0 mm 1 mps 760 mmHg 83%
    08:00 +10°C° 0 mm 1 mps 761 mmHg 76%
    09:00 +12°C° 0 mm 1 mps 761 mmHg 70%
    10:00 +13°C° 0 mm 0 mps 761 mmHg 63%
    11:00 +14°C° 0 mm 1 mps 761 mmHg 63%
    12:00 +15°C° 0 mm 1 mps 761 mmHg 62%
    13:00 +16°C° 0 mm 2 mps 761 mmHg 61%
    14:00 +15°C° 0 mm 2 mps 761 mmHg 64%
    15:00 +15°C° 0 mm 2 mps 761 mmHg 68%
    16:00 +15°C° 0 mm 2 mps 760 mmHg 71%
    17:00 +13°C° 0 mm 2 mps 761 mmHg 78%
    18:00 +12°C° 0 mm 2 mps 761 mmHg 86%
    19:00 +10°C° 0 mm 1 mps 761 mmHg 94%
    20:00 +10°C° 0 mm 1 mps 761 mmHg 93%
    21:00 +10°C° 0 mm 1 mps 761 mmHg 93%
    22:00 +9°C° 0 mm 1 mps 761 mmHg 93%
    23:00 +9°C° 0 mm 1 mps 761 mmHg 91%

    22 February, Friday

    Time Temperature Precipitation Wind Pressure Humidity
    00:00 +9°C° 0 mm 1 mps 761 mmHg 90%
    01:00 +9°C° 0 mm 1 mps 761 mmHg 89%
    02:00 +9°C° 0 mm 1 mps 760 mmHg 88%
    03:00 +9°C° 0 mm 1 mps 760 mmHg 87%
    04:00 +8°C° 0 mm 1 mps 760 mmHg 86%
    05:00 +8°C° 0 mm 1 mps 760 mmHg 85%
    06:00 +8°C° 0 mm 1 mps 760 mmHg 84%
    07:00 +8°C° 0 mm 1 mps 760 mmHg 84%
    08:00 +10°C° 0 mm 1 mps 760 mmHg 77%
    09:00 +13°C° 0 mm 1 mps 760 mmHg 70%
    10:00 +14°C° 0 mm 0 mps 760 mmHg 64%
    11:00 +16°C° 0 mm 1 mps 760 mmHg 61%
    12:00 +18°C° 0 mm 1 mps 760 mmHg 58%
    13:00 +18°C° 0 mm 2 mps 760 mmHg 55%
    14:00 +17°C° 0 mm 2 mps 760 mmHg 58%
    15:00 +17°C° 0 mm 2 mps 759 mmHg 61%
    16:00 +16°C° 0 mm 2 mps 759 mmHg 65%
    17:00 +15°C° 0 mm 2 mps 759 mmHg 70%
    18:00 +13°C° 0 mm 1 mps 759 mmHg 76%
    19:00 +12°C° 0 mm 1 mps 759 mmHg 82%
    20:00 +12°C° 0 mm 1 mps 760 mmHg 78%
    21:00 +12°C° 0 mm 1 mps 760 mmHg 74%
    22:00 +11°C° 0 mm 1 mps 761 mmHg 70%
    23:00 +11°C° 0 mm 1 mps 761 mmHg 65%

    23 February, Saturday

    Time Temperature Precipitation Wind Pressure Humidity
    00:00 +11°C° 0 mm 1 mps 762 mmHg 61%
    01:00 +11°C° 0 mm 1 mps 762 mmHg 56%
    02:00 +11°C° 0 mm 1 mps 762 mmHg 55%
    03:00 +10°C° 0 mm 1 mps 762 mmHg 53%
    04:00 +10°C° 0 mm 1 mps 762 mmHg 52%
    05:00 +9°C° 0 mm 2 mps 762 mmHg 54%
    06:00 +9°C° 0 mm 2 mps 762 mmHg 55%
    07:00 +8°C° 0 mm 2 mps 762 mmHg 57%
    08:00 +10°C° 0 mm 2 mps 763 mmHg 56%
    09:00 +13°C° 0 mm 2 mps 763 mmHg 55%
    10:00 +15°C° 0 mm 2 mps 764 mmHg 54%
    11:00 +15°C° 0 mm 2 mps 764 mmHg 53%
    12:00 +16°C° 0 mm 2 mps 763 mmHg 53%
    13:00 +17°C° 0 mm 3 mps 763 mmHg 53%
    14:00 +16°C° 0 mm 2 mps 763 mmHg 56%
    15:00 +16°C° 0 mm 2 mps 762 mmHg 60%
    16:00 +15°C° 0 mm 2 mps 762 mmHg 63%
    17:00 +14°C° 0 mm 2 mps 762 mmHg 70%
    18:00 +12°C° 0 mm 1 mps 762 mmHg 76%
    19:00 +11°C° 0 mm 1 mps 762 mmHg 83%
    20:00 +10°C° 0 mm 1 mps 762 mmHg 82%
    21:00 +10°C° 0 mm 1 mps 763 mmHg 81%
    22:00 +10°C° 0 mm 1 mps 763 mmHg 80%
    23:00 +10°C° 0 mm 1 mps 763 mmHg 79%

    24 February, Sunday

    Time Temperature Precipitation Wind Pressure Humidity
    00:00 +8°C° 0 mm 2 mps 763 mmHg 79%
    01:00 +8°C° 0 mm 2 mps 763 mmHg 78%
    02:00 +8°C° 0 mm 2 mps 763 mmHg 77%
    03:00 +8°C° 0 mm 2 mps 762 mmHg 76%
    04:00 +8°C° 0 mm 2 mps 762 mmHg 76%
    05:00 +7°C° 0 mm 2 mps 762 mmHg 75%
    06:00 +7°C° 0 mm 2 mps 763 mmHg 74%
    07:00 +7°C° 0 mm 2 mps 763 mmHg 73%
    08:00 +8°C° 0 mm 2 mps 763 mmHg 66%
    09:00 +11°C° 0 mm 1 mps 763 mmHg 59%
    10:00 +13°C° 0 mm 1 mps 764 mmHg 52%
    11:00 +14°C° 0 mm 2 mps 764 mmHg 51%
    12:00 +15°C° 0 mm 2 mps 764 mmHg 50%
    13:00 +16°C° 0 mm 3 mps 764 mmHg 50%
    14:00 +14°C° 0 mm 3 mps 763 mmHg 52%
    15:00 +14°C° 0 mm 3 mps 763 mmHg 55%
    16:00 +13°C° 0 mm 3 mps 763 mmHg 58%
    17:00 +13°C° 0 mm 2 mps 763 mmHg 64%
    18:00 +10°C° 0 mm 2 mps 763 mmHg 70%
    19:00 +9°C° 0 mm 1 mps 764 mmHg 76%
    20:00 +9°C° 0 mm 1 mps 764 mmHg 73%
    21:00 +8°C° 0 mm 2 mps 765 mmHg 71%
    22:00 +7°C° 0 mm 2 mps 765 mmHg 68%
    23:00 +8°C° 0 mm 1 mps 765 mmHg 67%
    Show more